Hourly Weather Cardiff

Today, 2 July, Thursday

Time Temperature Precipitation Wind Pressure Humidity
00:00 +12°C° 0 mm 4 mps 754 mmHg 95%
01:00 +12°C° 0 mm 4 mps 754 mmHg 95%
02:00 +12°C° 0 mm 4 mps 754 mmHg 95%
03:00 +12°C° 0 mm 5 mps 754 mmHg 96%
04:00 +13°C° 0.1 mm 5 mps 754 mmHg 95%
05:00 +13°C° 0.1 mm 5 mps 754 mmHg 94%
06:00 +14°C° 0 mm 6 mps 755 mmHg 92%
07:00 +14°C° 0.2 mm 6 mps 755 mmHg 91%
08:00 +15°C° 0.2 mm 6 mps 755 mmHg 89%
09:00 +15°C° 0.2 mm 6 mps 755 mmHg 87%
10:00 +16°C° 0.2 mm 6 mps 756 mmHg 84%
11:00 +17°C° 0.2 mm 6 mps 756 mmHg 81%
12:00 +19°C° 0.2 mm 6 mps 757 mmHg 78%
13:00 +18°C° 0.2 mm 7 mps 757 mmHg 80%
14:00 +17°C° 0.2 mm 7 mps 757 mmHg 81%
15:00 +17°C° 0.2 mm 8 mps 757 mmHg 82%
16:00 +17°C° 0 mm 7 mps 757 mmHg 82%
17:00 +17°C° 0 mm 7 mps 758 mmHg 82%
18:00 +16°C° 0 mm 6 mps 758 mmHg 82%
19:00 +15°C° 0 mm 6 mps 758 mmHg 86%
20:00 +14°C° 0 mm 5 mps 759 mmHg 90%
21:00 +13°C° 0 mm 5 mps 759 mmHg 94%
22:00 +12°C° 0 mm 4 mps 759 mmHg 94%
23:00 +12°C° 0 mm 4 mps 759 mmHg 93%

Tomorrow, 3 July, Friday

Time Temperature Precipitation Wind Pressure Humidity
00:00 +12°C° 0 mm 4 mps 760 mmHg 93%
01:00 +12°C° 0 mm 4 mps 759 mmHg 93%
02:00 +12°C° 0 mm 5 mps 759 mmHg 93%
03:00 +12°C° 0 mm 5 mps 759 mmHg 94%
04:00 +13°C° 0 mm 6 mps 759 mmHg 92%
05:00 +12°C° 0 mm 7 mps 759 mmHg 90%
06:00 +12°C° 0 mm 8 mps 759 mmHg 88%
07:00 +13°C° 0 mm 8 mps 759 mmHg 88%
08:00 +13°C° 0 mm 9 mps 759 mmHg 88%
09:00 +13°C° 0 mm 9 mps 759 mmHg 88%
10:00 +13°C° 0.2 mm 9 mps 759 mmHg 88%
11:00 +13°C° 0.2 mm 9 mps 758 mmHg 89%
12:00 +15°C° 0.2 mm 9 mps 758 mmHg 90%
13:00 +15°C° 0.5 mm 9 mps 758 mmHg 91%
14:00 +15°C° 0.5 mm 9 mps 758 mmHg 93%
15:00 +15°C° 0.5 mm 9 mps 758 mmHg 95%
16:00 +15°C° 0.3 mm 9 mps 758 mmHg 95%
17:00 +15°C° 0.3 mm 9 mps 758 mmHg 95%
18:00 +15°C° 0.3 mm 8 mps 758 mmHg 96%
19:00 +15°C° 0.3 mm 8 mps 758 mmHg 96%
20:00 +15°C° 0.3 mm 8 mps 758 mmHg 96%
21:00 +16°C° 0.3 mm 7 mps 758 mmHg 96%
22:00 +16°C° 0.1 mm 7 mps 758 mmHg 96%
23:00 +16°C° 0.1 mm 7 mps 757 mmHg 96%

Day after tomorrow, 4 July, Saturday

Time Temperature Precipitation Wind Pressure Humidity
00:00 +16°C° 0.1 mm 7 mps 757 mmHg 96%
01:00 +16°C° 0.4 mm 7 mps 757 mmHg 96%
02:00 +16°C° 0.4 mm 8 mps 756 mmHg 96%
03:00 +16°C° 0.4 mm 8 mps 756 mmHg 96%
04:00 +16°C° 0.5 mm 8 mps 756 mmHg 96%
05:00 +16°C° 0.5 mm 8 mps 756 mmHg 96%
06:00 +16°C° 0.5 mm 8 mps 756 mmHg 96%
07:00 +16°C° 1 mm 7 mps 755 mmHg 97%
08:00 +16°C° 1 mm 7 mps 755 mmHg 97%
09:00 +16°C° 1 mm 7 mps 755 mmHg 97%
10:00 +17°C° 0.5 mm 7 mps 755 mmHg 96%
11:00 +17°C° 0.5 mm 8 mps 756 mmHg 95%
12:00 +17°C° 0.5 mm 8 mps 756 mmHg 95%
13:00 +16°C° 0 mm 8 mps 756 mmHg 94%
14:00 +16°C° 0 mm 8 mps 756 mmHg 94%
15:00 +16°C° 0 mm 8 mps 756 mmHg 94%
16:00 +16°C° 0 mm 8 mps 756 mmHg 93%
17:00 +16°C° 0 mm 7 mps 756 mmHg 92%
18:00 +16°C° 0 mm 7 mps 756 mmHg 91%
19:00 +16°C° 0 mm 7 mps 757 mmHg 91%
20:00 +16°C° 0 mm 7 mps 757 mmHg 92%
21:00 +16°C° 0 mm 6 mps 757 mmHg 92%
22:00 +16°C° 0 mm 7 mps 757 mmHg 92%
23:00 +15°C° 0 mm 7 mps 757 mmHg 92%

5 July, Sunday

Time Temperature Precipitation Wind Pressure Humidity
00:00 +15°C° 0 mm 7 mps 757 mmHg 92%
01:00 +15°C° 0.1 mm 7 mps 756 mmHg 92%
02:00 +16°C° 0.1 mm 8 mps 756 mmHg 93%
03:00 +16°C° 0.1 mm 8 mps 755 mmHg 93%
04:00 +16°C° 0.5 mm 9 mps 755 mmHg 94%
05:00 +16°C° 0.5 mm 10 mps 755 mmHg 94%
06:00 +17°C° 0.5 mm 11 mps 754 mmHg 95%
07:00 +17°C° 0.1 mm 11 mps 754 mmHg 95%
08:00 +16°C° 0.1 mm 11 mps 755 mmHg 94%
09:00 +16°C° 0.1 mm 11 mps 755 mmHg 93%
10:00 +17°C° 0.2 mm 11 mps 755 mmHg 91%
11:00 +17°C° 0.2 mm 11 mps 755 mmHg 88%
12:00 +17°C° 0.2 mm 11 mps 755 mmHg 85%
13:00 +17°C° 0.1 mm 11 mps 755 mmHg 81%
14:00 +17°C° 0.1 mm 10 mps 756 mmHg 77%
15:00 +17°C° 0.1 mm 10 mps 756 mmHg 72%
16:00 +16°C° 0 mm 10 mps 756 mmHg 73%
17:00 +14°C° 0 mm 10 mps 756 mmHg 74%
18:00 +15°C° 0 mm 9 mps 757 mmHg 74%
19:00 +13°C° 0 mm 9 mps 757 mmHg 75%
20:00 +12°C° 0 mm 8 mps 758 mmHg 77%
21:00 +11°C° 0 mm 8 mps 758 mmHg 78%
22:00 +11°C° 0 mm 8 mps 758 mmHg 79%
23:00 +11°C° 0 mm 8 mps 758 mmHg 80%

6 July, Monday

Time Temperature Precipitation Wind Pressure Humidity
00:00 +11°C° 0 mm 9 mps 758 mmHg 81%
01:00 +11°C° 0 mm 9 mps 758 mmHg 81%
02:00 +10°C° 0 mm 9 mps 759 mmHg 81%
03:00 +10°C° 0 mm 9 mps 759 mmHg 82%
04:00 +10°C° 0 mm 8 mps 759 mmHg 83%
05:00 +11°C° 0 mm 8 mps 759 mmHg 84%
06:00 +11°C° 0 mm 7 mps 760 mmHg 85%
07:00 +12°C° 0 mm 7 mps 760 mmHg 80%
08:00 +14°C° 0 mm 7 mps 761 mmHg 76%
09:00 +15°C° 0 mm 7 mps 761 mmHg 72%
10:00 +15°C° 0 mm 6 mps 762 mmHg 71%
11:00 +15°C° 0 mm 6 mps 762 mmHg 70%
12:00 +16°C° 0 mm 6 mps 763 mmHg 69%
13:00 +16°C° 0.1 mm 6 mps 763 mmHg 68%
14:00 +17°C° 0.1 mm 6 mps 763 mmHg 67%
15:00 +17°C° 0.1 mm 6 mps 764 mmHg 66%
16:00 +17°C° 0 mm 6 mps 764 mmHg 67%
17:00 +16°C° 0 mm 6 mps 764 mmHg 69%
18:00 +16°C° 0 mm 5 mps 764 mmHg 70%
19:00 +14°C° 0 mm 5 mps 765 mmHg 74%
20:00 +12°C° 0 mm 4 mps 765 mmHg 79%
21:00 +10°C° 0 mm 3 mps 766 mmHg 83%
22:00 +10°C° 0 mm 3 mps 766 mmHg 83%
23:00 +10°C° 0 mm 2 mps 766 mmHg 83%

7 July, Tuesday

Time Temperature Precipitation Wind Pressure Humidity
00:00 +9°C° 0 mm 2 mps 766 mmHg 83%
01:00 +10°C° 0 mm 1 mps 766 mmHg 83%
02:00 +10°C° 0 mm 1 mps 766 mmHg 83%
03:00 +10°C° 0 mm 1 mps 766 mmHg 82%
04:00 +10°C° 0 mm 1 mps 766 mmHg 81%
05:00 +11°C° 0 mm 1 mps 767 mmHg 80%
06:00 +11°C° 0 mm 0 mps 767 mmHg 78%
07:00 +14°C° 0 mm 1 mps 767 mmHg 74%
08:00 +15°C° 0 mm 1 mps 767 mmHg 70%
09:00 +18°C° 0 mm 1 mps 767 mmHg 66%
10:00 +18°C° 0 mm 1 mps 767 mmHg 65%
11:00 +18°C° 0 mm 2 mps 767 mmHg 65%
12:00 +18°C° 0 mm 2 mps 767 mmHg 64%
13:00 +19°C° 0 mm 2 mps 767 mmHg 63%
14:00 +19°C° 0 mm 3 mps 767 mmHg 63%
15:00 +19°C° 0 mm 3 mps 766 mmHg 63%
16:00 +19°C° 0 mm 3 mps 766 mmHg 66%
17:00 +18°C° 0 mm 3 mps 766 mmHg 69%
18:00 +18°C° 0 mm 3 mps 766 mmHg 72%
19:00 +16°C° 0 mm 3 mps 766 mmHg 77%
20:00 +15°C° 0 mm 2 mps 766 mmHg 82%
21:00 +13°C° 0 mm 2 mps 766 mmHg 88%
22:00 +13°C° 0 mm 2 mps 766 mmHg 88%
23:00 +12°C° 0 mm 2 mps 766 mmHg 88%
Show more